This is the latest recevied weather packets stored in our database for station/object N4OOJ-13. If no packets are shown the sender has not sent any weather packets the latest 10 day(s).
| Time | Temp. | Humidity | Pressure | Rain* | Wind** | Luminosity | Snow |
|---|---|---|---|---|---|---|---|
| 1777756228 | 14.44° C | 99% | 1012.9 hPa | 0 mm | - | - | - |
| 1777755628 | 14.44° C | 99% | 1012.7 hPa | 0 mm | - | - | - |
| 1777755028 | 14.44° C | 99% | 1012.6 hPa | 0 mm | - | - | - |
| 1777754427 | 14.44° C | 99% | 1012.8 hPa | 0 mm | - | - | - |
| 1777753820 | 14.44° C | 99% | 1012.7 hPa | 0 mm | - | - | - |
| 1777753220 | 14.44° C | 99% | 1012.5 hPa | 0.25 mm | - | - | - |
| 1777752626 | 14.44° C | 99% | 1012.5 hPa | 0.51 mm | - | - | - |
| 1777752019 | 13.89° C | 99% | 1012.6 hPa | 0.76 mm | - | - | - |
| 1777751420 | 13.89° C | 99% | 1012.8 hPa | 1.02 mm | - | - | - |
| 1777750832 | 13.89° C | 99% | 1012.9 hPa | 1.02 mm | - | - | - |
| 1777750227 | 14.44° C | 99% | 1012.6 hPa | 1.02 mm | - | - | - |
| 1777749623 | 13.89° C | 99% | 1012.8 hPa | 1.27 mm | - | - | - |
| 1777749023 | 14.44° C | 99% | 1013 hPa | 1.02 mm | - | - | - |
| 1777748417 | 14.44° C | 99% | 1012.9 hPa | 1.02 mm | - | - | - |
| 1777747818 | 14.44° C | 99% | 1012.7 hPa | 0.76 mm | - | - | - |
| 1777747230 | 15° C | 99% | 1012.3 hPa | 1.02 mm | - | - | - |
| 1777746631 | 15° C | 99% | 1012.4 hPa | 1.02 mm | - | - | - |
| 1777746026 | 15° C | 99% | 1012.5 hPa | 0.51 mm | - | - | - |
| 1777745421 | 15.56° C | 99% | 1012.2 hPa | 0.51 mm | - | - | - |
| 1777744821 | 15.56° C | 99% | 1012.1 hPa | 0.25 mm | - | - | - |
| 1777744233 | 15.56° C | 99% | 1012.1 hPa | 1.02 mm | - | - | - |
| 1777743633 | 15.56° C | 99% | 1012.2 hPa | 1.27 mm | - | - | - |
| 1777743033 | 16.11° C | 99% | 1012.4 hPa | 1.27 mm | - | - | - |
| 1777742427 | 16.11° C | 99% | 1012.6 hPa | 1.52 mm | - | - | - |
| 1777741822 | 15.56° C | 99% | 1013 hPa | 1.52 mm | - | - | - |
* Rain latest hour (hover to see other rain measurements)
** Current wind speed in m/s (hover to see current wind gust speed)